星链-32916 (STARLINK-32916)

导读

STARLINK-32916是美国SpaceX公司星链(Starlink)星座中的一颗卫星,于2025年2月8日发射升空,被部署至近地轨道。星链项目旨在构建全球覆盖的太空互联网通信系统,提供低成本、高性能的卫星互联网服务。该卫星是星链星座大规模组网进程中的一环,截至2026年,SpaceX已累计发射超万颗星链卫星,持续推动全球卫星互联网的覆盖与运营。

基本信息
目录编号:
62922
目录名称:
STARLINK-32916
国际标识:
2025-027R
轨道中心:
EARTH
卫星名称:
星链-32916
卫星全名:
星链-32916 (STARLINK-32916)
卫星状态:
在轨 (已飞行574 天)
发射日期:
2025-02-08 UTC
国别 :
美国 (US)
星等 :
--
轨道信息
数据来源 国际轨道数据
星历时间: 2026-09-04T14:18:08+0800
1天前
查看轨道信息
半长轴: 6861.127km
偏心率: 0.0003012
轨道倾角: 43.003°
近地点辐角 251.806°
升交点赤经 200.305°
平近点角 108.247°
近地点: 480.923km
远地点: 485.057km
周期: 94.266分钟
每日圈数: 15.275998
详细信息
固有亮度:
5
最大亮度:
2.5
卫星平台:
Starlink V1.0
覆盖范围:
全球
运营商:
太空探索技术公司
运营商所在国:
美国
制造商(研发单位):
太空探索技术公司
制造商所在国:
美国
使用方式:
暂无
卫星简介
Starlink 计划是 SpaceX 推出的全球卫星互联网项目,通过发射低轨道卫星,为全球尤其是偏远地区提供高速、低延迟的互联网服务。自 2019 年起,Starlink 已部署数千颗卫星,旨在缩小全球数字鸿沟,推动互联网普及。该项目还为军事、航空等行业提供通信支持,带来广泛经济效益。
2D轨道图
3D轨道图
轨道高度分析图
轨道倾角分析图
轨道综合分析图
查看轨道综合分析图
交会数据列表
事件ID 空间交会对象 最接近时刻(TCA) 交会距离 交会风险概率(CRP) 交会风险指数(CRI) 操作
CDM_260906-165505-931406-292222
2026-09-06T
16:55:20+0000
1.134 km
极远距离
1.101164E-5 中风险 0.56
CDM_260906-182905-931406-292222
2026-09-06T
18:29:29+0000
1.154 km
极远距离
1.036977E-5 中风险 0.55
CDM_260906-185605-743306-292221
2026-09-06T
18:56:04+0000
1.290 km
极远距离
7.200782E-6 低风险 0.52
CDM_260906-172105-743306-292221
2026-09-06T
17:21:55+0000
1.451 km
极远距离
4.858723E-6 低风险 0.49
CDM_260907-061505-931406-292222
2026-09-07T
06:15:38+0000
1.444 km
极远距离
4.843258E-6 低风险 0.49
CDM_260906-015405-321006-292221
2026-09-06T
01:54:17+0000
1.803 km
极远距离
3.42017E-6 低风险 0.46
CDM_260907-074905-931406-292221
2026-09-07T
07:49:47+0000
1.920 km
极远距离
2.095242E-6 低风险 0.41
CDM_260906-203005-743306-292221
2026-09-06T
20:30:13+0000
2.385 km
极远距离
1.31496E-6 低风险 0.37
CDM_260906-132105-269006-292221
2026-09-06T
13:21:47+0000
2.786 km
极远距离
1.219458E-6 低风险 0.37
CDM_260906-154705-743306-292222
2026-09-06T
15:47:45+0000
2.602 km
极远距离
1.132609E-6 低风险 0.36